| time (UTC) | temp F | wind direction | speed MPH | gust MPH | rain 1hr in | rain 24hr in | rain mn in | humidity % | barometer mb |
| 20260505073004 | 51 | 355 | 0.0 | 0.0 | 0.01 | 0.00 | 0.09 | 94 | 1001.7 |
| 20260505071004 | 51 | 343 | 0.0 | 0.0 | 0.01 | 0.00 | 0.09 | 94 | 1001.7 |
| 20260505065503 | 51 | 359 | 0.0 | 0.0 | 0.01 | 0.00 | 0.09 | 94 | 1002.0 |
| 20260505064004 | 51 | 291 | 0.0 | 0.0 | 0.01 | 0.00 | 0.09 | 94 | 1002.4 |
| 20260505063003 | 51 | 336 | 0.0 | 0.0 | 0.00 | 0.00 | 0.08 | 94 | 1002.7 |
| 20260505061503 | 51 | 2 | 0.0 | 0.0 | 0.00 | 0.00 | 0.08 | 94 | 1002.0 |
| 20260505060005 | 51 | 343 | 0.0 | 0.0 | 0.00 | 0.00 | 0.08 | 93 | 1001.7 |
| 20260505055003 | 51 | 4 | 0.0 | 0.0 | 0.00 | 0.00 | 0.08 | 93 | 1001.7 |
| 20260505053503 | 51 | 344 | 0.0 | 0.0 | 0.00 | 0.00 | 0.08 | 93 | 1002.0 |
| 20260505052004 | 51 | 3 | 0.0 | 0.0 | 0.00 | 0.00 | 0.08 | 93 | 1002.4 |
| 20260505051002 | 51 | 357 | 0.0 | 0.0 | 0.00 | 0.00 | 0.08 | 93 | 1002.7 |
| 20260505041004 | 51 | 327 | 0.0 | 0.0 | 0.01 | 0.00 | 0.08 | 93 | 1002.0 |
| 20260505040003 | 51 | 347 | 0.0 | 0.0 | 0.01 | 0.00 | 0.08 | 93 | 1002.0 |
| 20260505033004 | 51 | 20 | 0.0 | 0.0 | 0.00 | 0.00 | 0.07 | 93 | 1001.0 |
| 20260505031504 | 51 | 8 | 0.0 | 0.0 | 0.00 | 0.00 | 0.07 | 93 | 1001.0 |
| 20260505030503 | 51 | 330 | 0.0 | 0.0 | 0.00 | 0.00 | 0.07 | 93 | 1001.4 |
| 20260505025004 | 51 | 339 | 0.0 | 0.0 | 0.02 | 0.00 | 0.07 | 93 | 1001.7 |
| 20260505015004 | 52 | 358 | 0.0 | 0.0 | 0.02 | 0.00 | 0.05 | 93 | 1001.7 |
| 20260505014003 | 52 | 348 | 0.0 | 0.0 | 0.02 | 0.00 | 0.05 | 93 | 1002.0 |
| 20260505012503 | 52 | 325 | 0.0 | 0.0 | 0.02 | 0.00 | 0.04 | 93 | 1002.4 |
| 20260505011004 | 52 | 9 | 0.0 | 0.0 | 0.02 | 0.00 | 0.03 | 93 | 1002.0 |
| 20260505004502 | 52 | 359 | 0.0 | 0.0 | 0.04 | 0.00 | 0.03 | 92 | 1002.0 |
| 20260505003003 | 52 | 10 | 0.0 | 0.0 | 0.03 | 0.00 | 0.02 | 92 | 1002.0 |
| 20260505000004 | 52 | 15 | 0.0 | 0.0 | 0.03 | 0.00 | 0.00 | 92 | 1002.0 |
| 20260504234503 | 52 | 25 | 0.0 | 0.0 | 0.03 | 0.00 | 0.05 | 91 | 1002.0 |
| 20260504233004 | 52 | 39 | 0.0 | 0.0 | 0.05 | 0.00 | 0.05 | 91 | 1002.0 |
| 20260504231504 | 52 | 359 | 0.0 | 0.0 | 0.03 | 0.00 | 0.03 | 91 | 1002.0 |
| 20260504230005 | 53 | 15 | 0.0 | 0.0 | 0.03 | 0.00 | 0.03 | 90 | 1002.4 |
| 20260504224503 | 53 | 348 | 0.0 | 0.0 | 0.01 | 0.00 | 0.01 | 89 | 1002.0 |
| 20260504223004 | 54 | 359 | 0.0 | 0.0 | 0.00 | 0.00 | 0.00 | 87 | 1002.0 |
| 20260504220004 | 55 | 20 | 0.0 | 1.0 | 0.00 | 0.00 | 0.00 | 83 | 1002.0 |
| 20260504214504 | 56 | 50 | 0.0 | 2.0 | 0.00 | 0.00 | 0.00 | 79 | 1002.0 |
| 20260504210004 | 59 | 49 | 0.0 | 2.0 | 0.00 | 0.00 | 0.00 | 77 | 1002.0 |
| 20260504204503 | 60 | 58 | 2.0 | 4.0 | 0.00 | 0.00 | 0.00 | 75 | 1002.0 |
| 20260504203004 | 58 | 75 | 3.0 | 3.0 | 0.00 | 0.00 | 0.00 | 77 | 1002.0 |
| 20260504201503 | 58 | 65 | 0.0 | 2.0 | 0.00 | 0.00 | 0.00 | 78 | 1002.0 |
| 20260504200004 | 58 | 68 | 0.0 | 0.0 | 0.00 | 0.00 | 0.00 | 79 | 1002.0 |
| 20260504194503 | 58 | 14 | 0.0 | 0.0 | 0.00 | 0.00 | 0.00 | 79 | 1002.0 |
| 20260504193003 | 59 | 304 | 0.0 | 2.0 | 0.00 | 0.00 | 0.00 | 76 | 1002.0 |
| 20260504191504 | 60 | 20 | 3.0 | 3.0 | 0.00 | 0.00 | 0.00 | 74 | 1002.0 |
| 20260504190004 | 61 | 44 | 0.0 | 2.0 | 0.00 | 0.00 | 0.00 | 73 | 1001.7 |
| 20260504184503 | 59 | 64 | 1.0 | 3.0 | 0.00 | 0.00 | 0.00 | 75 | 1001.7 |
| 20260504183004 | 58 | 346 | 0.0 | 0.0 | 0.00 | 0.00 | 0.00 | 78 | 1001.7 |
| 20260504181504 | 58 | 351 | 0.0 | 3.0 | 0.00 | 0.00 | 0.00 | 76 | 1002.0 |
| 20260504174505 | 57 | 333 | 0.0 | 0.0 | 0.00 | 0.00 | 0.00 | 81 | 1001.7 |
| 20260504173004 | 56 | 44 | 0.0 | 0.0 | 0.00 | 0.00 | 0.00 | 80 | 1001.7 |
| 20260504171504 | 56 | 328 | 0.0 | 0.0 | 0.00 | 0.00 | 0.00 | 84 | 1001.7 |
| 20260504150504 | 47 | 335 | 0.0 | 0.0 | 0.00 | 0.00 | 0.00 | 92 | 1001.7 |
| 20260504140504 | 45 | 353 | 0.0 | 0.0 | 0.00 | 0.00 | 0.00 | 92 | 1001.7 |
| 20260504110503 | 46 | 3 | 0.0 | 0.0 | 0.00 | 0.00 | 0.00 | 91 | 1001.0 |
| 20260504082004 | 49 | 0 | 0.0 | 0.0 | 0.00 | 0.00 | 0.00 | 89 | 1001.4 |